Regional Weather Roundup
Issued by NWS

Home | Current Version | Previous Version | Graphics & Text | Print | Product List | Glossary On
Versions: 1 2 3 4 5 6 7 8 9 10 11 12 13 14 15 16 17 18 19 20 21 22 23 24 25 26 27 28 29 30 31 32 33 34 35 36 37 38 39 40 41 42 43 44 45 46 47 48 49 50
000
ASUS43 KLOT 290203
RWRIL

ILLINOIS REGIONAL WEATHER ROUNDUP
NATIONAL WEATHER SERVICE CHICAGO/ROMEOVILLE IL
900 PM CDT SAT MAY 28 2016

NOTE: "FAIR" INDICATES FEW OR NO CLOUDS BELOW 12,000 FEET WITH NO
SIGNIFICANT WEATHER AND/OR OBSTRUCTIONS TO VISIBILITY.

* THESE STATIONS ARE NOT UNDER NWS QUALITY CONTROL. THEY ALSO MAY NOT
  REPORT WEATHER SUCH AS PRECIPITATION OR FOG.

ILZ001-002-007-009-015-016-024-290300-
NORTHWEST ILLINOIS

CITY           SKY/WX    TMP DP  RH WIND       PRES   REMARKS
MOLINE         CLOUDY    75  58  55 W17       29.87R
STERLING*      CLOUDY    73  67  81 VRB5      29.87S
$$

ILZ003-004-008-010-011-017-018-290300-
NORTH CENTRAL ILLINOIS

CITY           SKY/WX    TMP DP  RH WIND       PRES   REMARKS
ROCKFORD       CLOUDY    69  62  78 W3        29.87F THUNDER
FREEPORT*      CLOUDY    67  64  90 S7        29.88F
ROCHELLE*      CLOUDY    68  64  86 S7        29.87F
$$

ILZ005-006-012>014-019>023-290300-
NORTHEAST ILLINOIS

CITY           SKY/WX    TMP DP  RH WIND       PRES   REMARKS
CHICAGO-OHARE  MOCLDY    77  63  61 S20G26    29.87F
CHICAGO-MIDWAY MOCLDY    80  62  54 S14G25    29.89F HX  81
AURORA         LGT RAIN  77  66  68 S14       29.88R
LANSING*       PTCLDY    75  64  67 S13       29.93S
WAUKEGAN       PTCLDY    77  64  64 S14       29.87S
DUPAGE AIRPORT CLEAR     76  62  62 S16G25    29.88R
WHEELING       PTCLDY    78  62  57 S18       29.88F HX  80
NORTHERLY ISL    N/A     77  61  57 S10         N/A
NORTHERLY ISL    N/A     77  61  57 S10         N/A
$$

LMZ740>746-290300-
SOUTHERN LAKE MICHIGAN

STATION/POSITION SKY/WX   TEMP    WIND        PRES    VSBY  WAVE
                          AIR SEA DIR/SP/G                  HT/PER
                          (F)     (DEG/KT/KT) (MB)    (MI)  (FT/S)
SOUTHERN BUOY              59 50  150/ 12/ 14 1012.2          1
WILMETTE HARBOR            67 54  200/ 12/ 16   N/A           3/ 3
HARRISON CRIB              78     180/ 22/ 23   N/A
BURNHAM HARBOR             74     170/  9/ 15   N/A
CALUMET HARBOR             80                 1012.4
BURNS HARBOR               78     190/ 12/ 15 1013.9R
MICHIGAN CITY              80     170/ 12/ 15   N/A
MICHIGAN CITY 6N           70 57  210/ 10/ 12   N/A           1/ 3
ST. JOSEPH                 69 61  190/  6/  8   N/A           2/ 4
$$

ILZ025>027-034>036-040-047-049-050-058-095>099-290300-
WEST-CENTRAL ILLINOIS

CITY           SKY/WX    TMP DP  RH WIND       PRES   REMARKS
QUINCY         CLOUDY    74  60  61 SW9       29.92R
MACOMB*        MOCLDY    74  62  67 W7        29.93R
PITTSFIELD*    MOCLDY    73  67  81 S6        29.94R
$$

ILZ028>032-037-038-041>044-048-051>054-059>061-290300-
CENTRAL ILLINOIS

CITY           SKY/WX    TMP DP  RH WIND       PRES   REMARKS
BLOOMINGTON    TSTM      66  57  72 NW13      29.99R
DECATUR        MOCLDY    76  66  71 S13       29.96R
PEORIA         LGT RAIN  66  61  84 S21G30    29.92R
SPRINGFIELD    MOCLDY    79  67  66 S14       29.93R HX  81
TAYLORVILLE    NOT AVBL
$$

ILZ033-039-045-046-055>057-062-063-290300-
EAST-CENTRAL ILLINOIS

CITY           SKY/WX    TMP DP  RH WIND       PRES   REMARKS
CHAMPAIGN      MOCLDY    75  67  76 S17G25    29.97R
MATTOON        CLOUDY    74  66  76 S9        29.98R
$$

ILZ079-100>102-290300-
SOUTHWEST ILLINOIS

CITY           SKY/WX    TMP DP  RH WIND       PRES   REMARKS
ALTON          MOCLDY    75  66  73 S12       29.93S
BELLEVILLE     CLOUDY    75  69  80 VRB5      29.96R
CAHOKIA*       CLOUDY    77  65  66 S10G20    29.95R
SPARTA*        CLOUDY    75  67  76 S5        30.01R
$$

ILZ064>066-069>071-074>076-080>082-084>086-088>090-092>094-290300-
SOUTH-CENTRAL ILLINOIS

CITY           SKY/WX    TMP DP  RH WIND       PRES   REMARKS
CARBONDALE     CLOUDY    74  67  78 S7        30.00R
EFFINGHAM*     CLOUDY    75  66  75 SE6       30.01S
MT. VERNON     CLOUDY    75  64  69 S7        30.01S
SALEM*         CLOUDY    76  67  73 S7        29.99R
$$

ILZ067-068-072-073-078-083-087-091-290300-
SOUTHEAST ILLINOIS

CITY           SKY/WX    TMP DP  RH WIND       PRES   REMARKS
LAWRENCEVILLE  CLOUDY    76  67  73 S9        30.02S
FLORA*         PTCLDY    75  69  80 S8        30.00S
HARRISBURG*    MOCLDY    74  70  87 CALM      30.02S
ROBINSON*      MOCLDY    71  66  84 S6        30.02S
$$

ABBREVIATIONS USED IN REMARKS
   TC - TEMPERATURE IN CELSIUS
  WCI - WIND CHILL INDEX
   HX - HEAT INDEX
  VSB - VISIBILITY
$$





USA.gov is the U.S. government's official web portal to all federal, state and local government web resources and services.